Wind_Speed
35 35 34 34 33 32 31 29 28 27 26 25 25 25 25 25 24 23 23 22 22 22 21 21 21 21 21 21 21 20 20 20 20 21 21 21 21 20 20 21 21 21 22 23 24 25 26 28 29 31 32 34 36 38 41 44 46 47 48 48 45 42 39 37 36 35 34 32 32 31 31 31 30 30 30 29 29 27 24 19 16 14 12 11 12
36 35 33 33 33 32 31 30 29 28 27 26 26 27 27 27 26 25 24 24 24 23 23 24 24 23 23 23 23 23 22 22 22 22 22 22 21 21 21 21 21 21 22 23 25 26 27 28 30 31 33 34 37 39 42 45 46 47 46 43 40 38 36 35 34 33 32 32 31 31 31 30 30 30 30 29 29 27 24 20 17 15 13 11 11
36 35 34 34 33 33 33 32 31 30 29 29 29 29 29 29 28 26 26 26 25 25 25 26 25 25 25 25 25 25 25 24 24 23 22 22 21 21 21 20 20 21 22 24 25 26 28 29 30 32 33 35 38 40 43 45 46 44 41 37 36 35 34 33 32 32 32 31 31 31 31 31 31 31 30 29 28 26 22 18 17 16 14 12 11
37 37 36 35 34 35 35 36 35 34 32 32 31 31 31 30 29 28 28 27 27 27 27 27 27 27 27 27 28 28 28 27 26 24 23 21 21 20 20 20 21 22 23 24 26 27 28 29 31 32 35 38 40 42 43 43 42 39 36 34 33 32 32 32 32 32 32 32 32 32 32 31 31 31 30 29 28 25 20 16 15 15 14 13 12
39 40 39 37 36 36 37 38 38 37 35 34 33 33 33 32 31 30 30 29 29 29 29 28 28 29 29 29 29 29 29 28 27 25 23 22 21 20 20 20 21 23 24 25 26 27 29 30 31 33 36 40 43 44 43 40 36 33 32 31 31 31 31 31 31 31 31 32 33 33 32 31 30 30 30 29 27 23 20 16 14 13 13 12 12
41 41 41 40 39 38 39 40 40 39 38 36 36 35 35 34 33 33 32 31 31 31 30 30 30 30 30 30 30 30 29 28 27 25 24 23 22 20 20 21 21 23 25 26 27 28 29 31 33 35 38 41 43 43 40 36 32 30 29 28 28 29 30 31 31 31 31 31 32 32 32 31 30 29 29 29 26 22 19 16 13 12 11 10 10
41 41 42 42 42 41 41 41 40 40 40 39 39 38 37 36 36 35 34 34 33 32 32 32 32 31 31 31 31 30 29 27 26 25 24 23 22 22 22 22 22 23 25 27 28 29 30 32 35 38 40 41 41 38 35 31 30 29 28 27 27 28 28 29 30 30 31 32 32 32 32 31 31 29 28 28 26 22 18 15 12 11 10 8 8
40 41 41 42 42 41 42 41 41 40 41 42 42 41 40 39 38 37 37 36 35 34 34 33 33 33 32 31 30 29 27 26 25 24 24 24 24 24 23 23 24 25 26 28 29 30 32 34 37 40 41 40 37 33 29 28 27 27 26 26 26 27 27 27 27 28 30 31 32 32 32 32 31 30 28 28 27 23 19 16 13 10 9 7 6
41 40 41 41 40 40 40 41 42 42 42 44 44 43 42 41 40 39 39 38 36 36 35 35 34 33 32 31 30 28 26 24 24 24 24 25 26 26 25 25 26 27 28 29 30 32 34 37 39 41 40 37 32 28 26 25 25 25 25 25 26 27 27 25 25 26 29 30 31 32 32 32 31 29 27 27 27 24 20 17 15 11 9 6 4
43 42 41 40 40 39 40 42 44 44 45 46 45 44 42 41 41 41 40 39 39 38 37 36 34 33 31 30 28 27 25 24 24 25 26 27 27 27 27 27 28 29 30 30 32 34 37 39 41 40 37 32 28 25 23 23 23 24 24 24 25 26 26 25 24 25 28 30 30 31 31 31 30 28 26 24 24 24 21 19 17 14 10 8 5
45 43 41 39 39 40 41 42 44 46 47 47 45 44 42 41 41 40 40 39 39 39 38 36 34 32 30 29 28 27 26 26 26 27 28 29 29 29 29 29 29 30 31 32 34 36 39 41 41 38 33 28 25 22 21 21 22 23 24 24 24 25 25 25 25 27 30 31 31 31 32 32 31 28 26 24 23 22 20 20 20 18 14 11 8
46 44 41 39 39 40 41 41 42 45 47 48 47 44 42 41 40 39 39 38 38 37 37 35 33 31 30 29 29 28 28 28 28 28 29 30 30 30 30 31 31 32 33 34 36 38 41 42 40 35 29 25 22 20 20 21 22 23 24 24 25 25 25 26 28 30 32 34 35 34 33 34 34 31 27 25 24 22 20 19 20 20 17 14 12
46 44 41 40 39 39 39 39 41 42 45 47 47 45 44 42 41 39 37 36 36 36 35 34 32 31 31 30 31 31 30 30 30 30 30 31 31 31 31 32 33 34 34 36 38 40 42 41 36 31 26 22 20 19 20 21 22 23 25 26 26 26 25 27 30 32 34 36 39 38 35 34 35 33 29 27 26 24 22 21 21 20 18 17 17
46 43 42 40 38 38 38 38 39 40 42 45 46 47 45 43 41 38 36 35 36 36 35 34 33 33 32 32 33 33 32 32 32 31 31 32 32 32 32 33 34 35 37 39 41 42 42 38 32 27 23 20 19 20 21 22 23 24 26 27 27 26 27 30 32 32 34 37 39 40 38 35 35 33 30 28 28 26 23 23 23 21 18 18 19
46 44 42 40 38 37 36 36 37 38 40 42 45 47 46 44 41 39 37 36 36 36 35 35 35 35 34 34 34 34 34 33 33 32 32 33 33 33 34 34 35 37 38 41 42 42 40 34 29 25 21 20 20 21 22 24 24 25 27 28 29 29 29 32 34 34 36 38 39 40 39 37 36 34 30 28 28 26 24 24 25 23 18 18 21
47 46 44 42 39 37 36 35 35 35 37 40 43 45 45 44 42 40 39 39 38 38 37 37 37 36 36 36 36 35 34 34 34 34 34 34 34 34 35 35 36 38 40 42 43 40 35 30 26 23 20 20 21 22 23 25 26 27 29 31 32 32 33 35 36 37 38 40 41 41 40 38 38 37 33 28 27 25 24 25 26 22 19 20 23
49 47 46 44 41 38 36 34 33 33 34 37 40 43 44 44 42 41 41 41 40 40 40 39 39 39 39 38 36 35 34 34 34 35 35 35 35 36 36 37 38 39 42 43 41 37 32 27 25 22 21 20 21 22 24 26 27 29 31 34 35 35 36 37 39 40 41 43 43 43 43 40 39 40 37 31 28 26 26 29 29 23 23 24 24
51 49 47 45 43 40 37 34 33 32 33 35 38 40 42 43 43 43 43 43 43 43 42 41 41 41 40 39 37 36 34 34 35 36 36 36 37 37 37 38 39 41 43 42 39 33 29 26 24 23 22 22 22 23 23 25 27 29 31 34 36 36 37 38 40 41 43 45 46 45 45 44 42 42 40 37 35 34 34 38 36 30 30 31 33
53 51 48 45 43 41 38 35 33 32 33 35 36 38 40 42 43 44 45 45 45 44 43 43 42 42 41 39 38 37 35 35 36 36 36 37 38 38 39 39 40 42 42 40 35 31 27 25 24 24 24 24 23 24 24 25 28 30 31 33 36 37 38 38 40 42 44 47 48 48 48 48 46 45 44 43 42 41 40 42 41 38 38 37 40
54 51 48 46 43 42 39 36 34 33 34 35 35 37 39 41 42 44 45 45 45 45 45 44 43 42 41 39 38 38 37 35 36 36 37 38 39 39 40 41 42 42 41 37 33 29 27 25 25 25 25 26 25 25 26 28 30 32 33 34 36 37 39 39 41 42 44 46 49 50 50 51 50 49 47 46 47 46 44 44 44 43 42 42 43
53 50 48 46 43 42 40 38 36 36 36 36 36 36 37 39 41 42 44 45 45 45 45 44 43 42 41 39 39 39 38 36 36 38 39 40 40 41 42 43 42 41 38 35 31 29 27 26 26 26 26 27 27 28 29 30 32 34 35 35 36 37 38 40 41 43 44 46 48 49 50 51 51 50 48 47 48 49 48 48 48 47 47 47 48
52 50 48 46 44 43 42 41 40 39 38 38 38 37 37 38 39 40 42 43 44 44 44 43 42 42 41 40 40 39 38 38 38 39 40 41 42 43 44 44 42 40 36 33 31 29 27 27 26 26 27 28 29 30 31 32 34 35 36 37 37 38 38 40 42 44 46 47 49 50 51 52 52 51 49 48 49 50 51 52 53 54 54 54 54
53 52 50 48 47 46 46 45 43 42 41 40 40 39 39 39 39 40 41 42 43 44 44 43 42 41 41 40 40 39 39 40 40 41 42 43 43 44 45 44 41 38 35 32 30 28 27 27 27 27 28 29 30 32 33 34 35 36 37 38 39 39 40 40 42 44 47 49 50 51 52 53 52 51 51 51 51 53 55 56 57 58 58 58 58
55 55 53 52 51 50 49 48 47 46 44 43 42 41 40 40 40 41 41 42 43 44 44 42 42 41 41 40 40 40 41 42 42 43 44 44 44 44 44 42 39 35 33 31 29 28 28 28 28 29 29 30 32 34 35 36 37 37 38 40 41 42 42 42 44 46 49 51 52 53 54 54 52 49 49 51 53 56 58 60 61 62 61 61 60
54 56 57 56 55 54 53 51 50 49 48 46 44 43 41 41 41 41 42 42 43 43 43 42 42 42 41 41 42 42 43 44 45 45 45 45 45 44 43 40 37 34 32 31 31 30 31 30 30 30 31 32 34 36 36 37 37 38 40 41 42 43 44 44 46 48 50 52 53 54 56 55 50 46 47 51 55 58 60 63 63 63 63 61 59
50 53 55 57 57 56 54 53 52 51 50 49 47 46 44 43 43 44 44 44 44 44 44 44 44 43 43 44 44 45 45 46 47 47 46 46 45 43 41 38 36 34 33 32 32 32 32 32 31 32 33 34 36 37 37 38 39 40 41 42 43 44 45 46 47 49 51 53 54 55 56 53 47 45 48 53 56 59 62 62 61 61 61 59 57
48 50 52 54 56 56 56 55 54 52 51 50 50 49 48 47 47 47 47 46 46 46 46 46 46 46 46 46 46 46 47 47 48 47 47 45 43 41 39 38 36 34 34 34 34 33 33 33 33 34 35 36 37 37 38 39 40 41 43 44 45 46 47 47 49 50 52 53 53 55 55 52 46 45 49 53 55 58 61 61 59 59 59 59 57
46 48 50 52 53 55 56 56 55 54 53 53 52 52 52 51 51 51 50 49 49 48 48 48 48 48 48 48 48 48 48 49 48 47 45 43 42 40 39 37 36 35 35 35 35 35 34 34 35 35 36 37 37 38 39 40 41 43 44 45 46 48 49 50 50 51 52 53 53 54 55 52 46 45 47 51 54 58 60 60 59 58 58 59 58
43 45 47 49 51 52 54 55 55 55 55 55 55 55 54 54 54 53 53 52 52 51 51 51 51 50 50 50 50 50 50 49 48 46 44 43 41 40 38 36 36 36 36 36 36 36 36 36 36 37 37 38 39 40 40 41 42 44 45 47 48 50 52 52 53 54 55 55 56 56 56 54 48 45 46 50 55 59 60 60 59 57 56 57 58
41 43 45 46 48 49 51 52 54 55 56 56 56 56 56 56 56 55 55 54 54 53 53 53 53 52 51 51 50 50 49 48 47 46 45 43 42 40 38 37 37 37 37 38 38 38 38 38 38 38 39 40 41 42 42 43 44 46 47 49 50 52 54 55 56 56 57 58 58 59 58 56 50 46 46 49 53 58 60 60 59 56 55 56 56
39 41 42 43 44 46 48 49 51 53 54 55 56 56 57 57 56 56 56 55 55 54 54 54 53 52 51 50 49 49 48 48 47 46 45 43 42 40 39 39 39 39 39 39 39 39 39 39 40 41 41 43 44 44 45 45 46 48 49 51 52 54 56 57 59 59 59 59 60 61 60 57 51 47 47 47 50 55 58 59 57 54 54 55 54
38 39 40 41 42 43 44 46 48 50 51 53 54 54 55 55 55 55 55 54 54 54 54 53 52 51 50 49 49 48 48 47 46 45 44 42 41 41 41 41 41 41 41 41 41 41 41 41 42 43 45 46 46 47 48 48 49 50 51 53 54 56 58 60 61 61 61 61 61 62 62 58 51 48 48 47 49 53 55 56 55 53 53 54 53
39 39 39 39 40 40 42 43 44 46 47 48 50 51 51 52 52 52 53 53 53 52 52 52 51 50 49 48 47 46 46 46 45 44 42 42 43 43 43 43 42 42 43 43 43 43 43 44 46 47 48 48 49 50 51 52 53 53 54 55 56 58 60 62 63 63 63 63 63 64 63 59 53 50 50 48 48 50 53 54 55 54 53 53 52
41 40 39 39 39 39 40 40 41 42 43 44 45 46 47 48 49 49 50 50 50 50 49 49 48 48 47 46 45 44 44 46 47 46 44 43 43 43 43 44 44 44 45 45 45 46 47 48 49 49 50 51 52 53 54 55 56 57 57 58 58 59 61 63 64 65 65 65 65 65 64 60 55 54 54 52 50 50 51 52 54 55 54 52 52
43 42 41 40 40 39 39 39 39 40 40 41 42 42 43 44 45 46 46 47 47 47 47 47 46 45 45 44 44 44 45 47 49 49 48 47 45 45 45 46 47 47 48 48 49 49 49 50 51 52 53 54 55 56 58 59 59 60 60 60 61 62 63 65 66 66 65 66 66 66 64 61 57 57 58 57 55 54 53 51 51 54 54 50 49
45 44 43 42 41 41 40 40 39 39 40 40 40 40 41 42 43 44 45 45 46 46 47 47 46 45 45 45 45 46 48 49 50 51 51 50 49 49 48 49 49 49 49 50 50 51 52 53 54 55 56 57 58 59 61 62 62 63 63 63 63 64 65 66 67 67 67 67 67 66 65 62 59 58 60 61 61 62 60 55 50 50 52 51 50
48 47 46 45 44 44 43 42 41 41 41 41 41 41 41 42 43 44 45 46 46 46 46 47 47 46 46 47 48 49 50 51 51 52 51 52 52 52 52 52 52 52 51 52 52 54 55 56 57 58 59 60 62 63 64 65 65 66 67 66 66 66 67 68 68 69 69 68 67 67 66 64 61 60 60 62 65 68 68 64 58 52 50 52 56
51 51 50 49 48 47 46 46 45 44 44 43 43 43 43 43 44 45 45 47 47 47 47 49 50 49 50 51 52 52 53 53 53 53 52 53 54 53 52 52 53 53 54 56 57 58 59 60 60 61 63 64 65 66 67 68 69 69 70 70 69 69 69 70 70 70 70 69 69 69 68 66 63 62 61 62 66 69 70 68 66 59 51 49 54
54 54 53 53 52 51 50 49 49 48 47 47 46 46 46 46 47 47 47 49 50 50 51 54 56 56 55 54 54 54 55 55 54 53 53 53 54 54 54 55 56 57 58 60 61 62 63 63 64 65 66 67 69 69 70 71 72 73 74 74 73 72 72 72 72 72 72 72 72 72 71 67 64 63 63 65 68 70 69 68 67 63 54 47 48
58 57 57 56 55 54 53 53 52 51 50 50 50 51 51 51 51 50 51 52 53 53 54 57 59 60 59 58 56 56 56 56 55 55 56 57 58 59 62 64 64 64 64 64 65 66 67 68 69 70 70 71 72 73 74 74 75 76 77 77 76 76 75 74 74 74 74 75 76 74 71 67 64 63 65 67 70 71 70 68 66 62 57 51 46
61 60 60 59 58 57 57 56 56 55 54 54 54 54 55 55 54 54 55 55 56 56 56 58 60 61 61 61 61 60 60 59 59 59 61 63 64 65 67 68 68 68 68 68 69 70 71 72 73 74 74 75 76 76 77 78 78 79 80 80 79 78 77 77 77 76 77 78 77 74 70 67 65 65 68 71 73 73 73 71 66 62 59 54 48
65 63 63 62 61 60 59 59 58 58 58 57 57 57 57 57 57 57 58 59 59 59 59 59 60 62 63 65 65 65 65 66 66 66 67 69 70 70 71 71 71 71 72 72 73 74 75 76 77 78 78 79 80 80 81 81 81 82 82 82 82 80 79 79 79 79 80 80 77 73 70 69 68 69 72 75 76 77 76 73 67 62 59 57 51
68 67 65 65 64 63 62 62 61 61 61 60 60 60 60 60 60 60 60 61 62 62 62 61 61 63 65 66 67 68 69 70 71 72 73 73 74 74 75 75 75 75 76 77 78 79 79 80 81 81 82 83 83 84 84 84 84 84 84 84 83 82 82 82 82 82 83 81 77 73 72 71 71 73 76 78 79 80 79 74 69 63 59 57 55
71 70 69 68 67 66 66 65 65 65 64 64 64 63 63 63 63 63 63 63 63 63 64 64 64 65 66 67 69 70 71 72 73 74 75 76 76 77 77 77 78 79 80 81 82 83 83 84 84 85 86 86 87 87 86 86 86 86 86 85 84 84 85 85 84 84 84 81 77 76 76 75 75 77 79 81 83 83 80 75 70 65 61 58 57
74 74 73 72 71 70 69 69 68 68 68 67 67 67 66 66 66 66 66 66 66 66 67 67 67 67 68 69 70 71 72 73 75 76 76 77 78 79 79 80 81 81 83 84 85 86 87 87 88 88 89 89 89 89 89 88 88 88 88 86 86 86 86 86 86 87 85 81 79 79 80 79 79 81 82 84 85 84 81 76 71 67 63 60 59
76 76 76 76 75 74 73 73 72 72 71 71 70 70 69 69 69 69 69 69 70 70 71 71 71 71 72 73 73 74 75 76 77 78 79 80 81 82 82 83 84 85 86 87 88 89 90 90 91 91 91 91 91 91 90 90 90 89 89 88 88 88 88 88 89 89 85 82 81 82 83 83 84 85 85 86 85 84 80 77 73 69 66 64 62
78 78 78 78 78 78 77 77 76 75 75 74 74 73 73 73 72 72 72 72 73 73 73 74 75 75 76 76 77 78 79 80 81 82 83 83 84 85 86 86 87 88 89 90 91 92 92 92 92 92 93 93 93 92 92 92 91 90 90 90 90 90 90 91 91 89 85 84 84 85 86 86 88 88 88 87 86 83 81 78 75 72 69 67 66
81 80 80 80 80 80 80 79 79 79 78 78 77 76 76 75 75 75 75 75 75 75 76 76 77 78 79 80 81 82 83 83 84 85 86 87 87 88 89 89 89 90 91 92 93 93 94 94 94 94 94 94 94 94 93 92 92 92 92 92 92 93 93 93 90 88 86 86 87 88 89 90 91 90 90 88 86 84 82 80 77 75 73 71 69
85 84 83 82 81 81 80 80 80 80 80 80 80 79 79 78 78 78 78 78 78 78 79 79 80 81 82 82 83 84 85 86 87 87 88 89 89 90 90 90 91 92 93 94 94 95 96 96 96 96 97 96 96 94 94 93 93 94 94 94 95 95 94 92 90 88 88 90 91 92 93 93 93 92 91 90 87 85 83 82 80 79 78 76 74
88 87 86 84 83 82 82 82 82 82 82 81 81 80 80 80 80 80 80 80 81 81 82 83 84 84 85 86 87 87 88 88 89 89 90 91 91 92 92 93 93 94 95 96 96 97 98 98 98 98 98 97 96 96 95 94 94 95 96 97 97 97 95 93 91 91 92 93 94 95 96 96 95 94 92 91 88 86 84 83 83 82 81 81 79
90 89 87 86 85 85 85 84 83 83 82 82 82 82 82 81 81 81 82 82 82 83 84 85 85 86 86 87 87 88 89 90 90 91 92 92 93 94 94 94 95 96 97 98 99 99 100 100 100 99 98 98 97 97 96 95 96 99 100 99 98 96 95 94 94 94 95 96 98 99 99 99 98 96 94 92 90 88 87 85 84 83 83 83 83
Wind_Direction
231 233 234 234 233 235 237 237 236 233 229 224 223 224 227 231 233 234 236 239 243 247 250 253 256 258 261 265 268 272 277 282 288 295 300 303 305 306 306 307 310 316 321 325 328 329 331 332 333 334 335 336 336 335 334 334 333 333 334 334 336 338 340 342 344 345 346 346 345 344 344 345 344 343 343 345 345 345 343 341 337 333 326 310 294
230 233 235 237 238 239 241 241 239 236 231 225 223 225 228 231 234 236 238 242 245 249 253 256 259 262 266 270 273 276 279 283 288 293 297 301 304 306 307 308 311 315 319 322 324 327 328 329 330 332 333 333 333 332 332 332 332 332 333 335 337 339 341 343 345 346 346 346 344 343 344 345 344 343 345 347 346 345 344 341 337 334 331 323 310
230 231 234 237 238 239 240 241 240 236 232 228 226 227 230 232 235 238 240 243 247 251 255 259 264 268 272 275 278 281 283 286 288 291 294 299 303 306 308 309 311 314 316 319 322 324 325 326 328 330 330 330 330 330 330 330 330 331 334 337 339 340 341 343 346 346 346 345 344 344 345 346 344 344 345 347 347 345 345 344 338 333 334 332 327
230 230 231 233 235 236 237 239 239 237 234 232 231 231 232 235 237 239 241 244 248 252 257 261 266 270 274 277 280 283 285 288 289 291 294 297 301 304 307 309 310 312 315 318 320 321 322 325 327 328 328 328 328 328 329 329 330 332 335 339 340 341 342 343 346 346 345 343 343 345 347 346 345 344 345 347 347 344 344 348 344 335 334 336 337
231 230 230 230 230 232 235 237 238 238 237 236 235 234 235 236 238 240 243 246 249 253 258 263 267 270 274 277 280 283 286 288 291 294 296 298 299 302 305 307 309 312 314 316 316 318 321 323 325 326 326 327 327 328 328 329 331 334 337 339 341 341 342 344 346 345 344 343 342 344 346 346 345 345 345 345 346 344 341 344 346 338 335 338 341
232 232 231 230 229 228 231 234 237 239 239 238 237 237 237 238 239 241 244 247 250 255 259 264 268 271 274 278 280 283 285 288 292 296 298 299 301 303 305 306 308 310 312 312 314 316 319 321 323 325 326 327 327 327 328 329 332 336 338 340 343 343 343 345 346 345 343 342 341 342 345 345 345 346 345 344 345 345 341 340 341 335 333 343 352
233 233 233 233 232 229 228 231 234 238 239 239 239 239 239 240 241 243 246 248 252 256 260 265 269 273 277 279 281 283 286 290 294 296 299 301 302 304 305 305 307 308 308 309 312 315 317 319 322 324 326 326 326 326 327 329 333 337 340 342 345 345 345 346 345 343 342 341 340 341 343 345 345 346 345 343 343 345 344 340 337 329 327 344 3
234 235 236 236 236 234 231 230 231 234 238 239 239 240 241 242 244 246 248 251 254 258 261 265 270 275 279 280 282 284 287 290 293 296 299 302 303 304 304 305 307 306 307 308 311 313 316 319 322 324 325 325 325 326 326 330 334 338 340 343 344 344 344 345 344 341 339 339 340 340 342 343 344 344 345 342 341 344 345 341 336 327 319 328 355
235 237 239 240 240 238 235 232 230 231 234 237 239 240 241 243 246 249 251 254 257 259 262 266 271 276 279 280 282 285 288 290 292 295 299 301 302 303 303 304 305 305 306 308 311 313 316 319 321 323 324 324 324 324 326 330 335 337 339 340 340 341 341 343 343 338 335 336 338 339 339 340 340 342 343 340 336 337 340 339 335 327 313 307 328
237 238 240 243 244 242 239 235 232 230 231 233 236 239 241 243 246 249 252 255 258 260 262 266 271 274 276 278 281 285 288 289 290 294 298 300 301 301 301 302 303 304 306 308 311 314 317 319 320 322 322 322 321 322 325 330 334 335 335 335 336 337 337 339 341 336 333 333 335 336 336 336 336 338 340 336 331 329 329 329 328 324 314 302 293
238 239 241 244 245 245 242 239 236 234 232 231 233 236 239 242 245 249 252 254 257 258 261 264 268 271 273 276 280 283 285 286 288 292 296 299 300 300 300 301 302 304 306 307 310 314 316 318 320 320 321 320 319 320 324 329 331 331 330 331 333 334 334 336 338 336 333 333 334 334 332 331 332 334 336 332 325 320 318 315 314 312 311 309 301
238 239 241 244 245 246 245 243 241 239 237 234 232 232 235 239 243 247 250 253 255 257 258 261 265 268 271 275 278 280 281 283 287 291 294 297 298 298 298 300 301 303 305 307 310 313 315 317 318 318 317 317 317 319 324 327 328 328 328 329 331 333 334 336 338 337 334 333 334 332 330 329 328 328 331 329 321 316 310 305 303 302 306 316 311
238 239 240 242 244 246 246 245 245 244 242 239 235 233 233 235 240 245 250 253 254 254 256 258 262 266 269 273 276 278 279 282 285 288 292 295 296 295 297 299 301 302 304 307 310 313 314 316 315 314 313 313 314 318 323 324 325 325 326 328 331 334 337 337 338 337 335 334 333 331 330 329 326 323 324 322 316 312 308 305 299 294 302 314 305
238 239 239 241 243 244 245 245 246 246 246 244 240 236 234 234 237 242 247 251 252 252 254 257 261 264 268 271 274 276 278 280 283 286 290 292 293 293 295 297 299 301 304 307 310 312 313 313 312 310 309 309 313 317 320 321 322 324 326 329 333 337 339 339 338 336 335 335 334 333 332 331 327 323 319 316 313 310 310 311 300 291 299 305 293
238 238 238 239 241 243 244 244 245 246 246 245 243 240 237 235 236 239 244 248 250 252 255 257 260 264 268 271 273 274 276 279 282 285 288 290 290 291 293 296 298 300 304 306 308 310 310 309 307 306 305 308 313 317 318 319 321 325 329 331 334 338 340 340 337 336 335 335 335 335 334 332 330 327 318 312 313 310 310 312 300 288 292 295 287
237 237 236 236 238 241 243 243 244 245 246 246 245 242 240 238 237 238 242 246 250 252 255 258 262 265 268 269 270 271 275 278 280 283 286 287 288 289 292 294 297 300 303 305 306 308 307 304 302 302 303 307 313 316 318 320 324 329 331 333 335 337 339 339 336 335 335 335 335 336 335 332 332 330 321 313 311 309 310 312 300 285 285 289 283
237 236 236 235 236 240 242 243 243 244 245 246 246 244 242 240 238 239 241 245 249 253 256 259 262 265 267 268 268 269 272 275 278 282 284 285 286 288 291 293 296 300 302 303 304 304 301 299 298 298 301 307 312 315 318 322 326 330 331 332 332 335 337 337 336 335 334 334 334 336 336 333 331 329 324 316 309 304 306 309 301 286 283 284 278
236 236 236 235 236 239 241 242 243 245 245 246 246 245 243 241 240 240 242 245 249 252 256 259 261 264 266 267 268 269 270 273 277 280 281 283 285 287 290 292 296 298 300 300 300 298 295 294 295 297 301 307 311 313 316 320 324 326 328 329 329 331 334 335 334 334 334 333 333 335 336 335 331 327 323 317 309 303 302 305 302 291 285 283 280
235 235 236 236 236 239 241 242 244 245 245 245 245 245 243 242 241 242 243 246 249 252 255 258 260 263 265 266 268 269 270 273 276 278 279 281 284 286 288 291 295 297 297 296 294 292 290 291 293 298 303 307 309 311 314 318 321 322 324 325 326 328 331 332 333 333 333 332 333 335 335 334 331 326 322 317 311 305 301 301 297 290 284 280 279
236 236 237 237 237 239 240 241 242 243 243 243 243 242 242 242 242 243 245 247 249 252 255 257 259 262 264 265 267 269 271 274 275 276 278 280 282 285 287 290 294 295 294 291 288 286 286 289 292 297 302 306 309 312 315 317 318 318 320 323 325 326 329 330 331 332 332 332 332 333 333 331 328 325 321 317 313 309 305 302 298 292 284 280 276
236 237 237 237 238 238 238 239 240 241 240 240 240 240 240 241 242 243 245 247 249 251 253 256 258 260 262 264 267 269 271 272 273 275 277 279 281 284 286 290 293 292 289 285 282 282 283 287 292 299 304 309 311 311 312 313 314 315 317 320 322 324 326 328 328 330 331 331 330 330 329 327 324 321 318 315 311 310 308 307 306 302 296 291 285
235 235 235 236 236 236 236 237 238 239 239 238 237 237 238 239 240 242 244 246 248 250 252 254 257 259 262 264 266 268 270 271 273 274 276 278 281 284 287 290 291 288 283 279 278 279 284 290 296 302 305 306 306 306 307 309 310 312 315 318 319 321 323 325 327 328 329 329 329 328 327 324 322 319 316 313 310 309 308 308 307 305 304 302 297
233 233 234 234 234 234 235 236 237 238 238 237 237 237 238 239 240 241 243 246 248 250 252 255 257 259 261 263 265 267 269 271 272 273 275 277 280 283 286 288 287 282 278 276 278 282 287 292 296 298 299 300 301 302 304 307 309 311 314 316 317 318 320 322 325 326 328 328 329 328 326 324 320 317 314 313 311 310 309 308 307 307 306 305 304
232 232 232 232 232 232 233 234 236 237 237 237 238 238 239 240 241 243 245 247 250 252 254 255 257 259 261 263 265 267 269 270 271 272 274 277 280 283 284 284 281 276 273 275 278 282 286 288 290 292 295 297 300 301 304 306 309 311 313 314 315 317 319 321 324 325 327 328 329 328 326 323 318 314 313 313 311 310 309 309 309 310 309 308 308
234 233 233 233 233 233 233 234 235 236 238 238 238 239 240 242 244 245 247 248 250 252 254 256 257 259 261 263 264 266 267 268 270 271 274 277 279 281 280 277 273 269 269 272 276 279 282 285 287 290 294 296 299 301 304 306 308 311 312 313 314 316 318 320 323 325 327 328 329 328 327 323 318 314 314 314 312 311 310 311 312 312 311 310 309
234 235 235 235 235 236 236 236 237 238 239 239 240 240 241 243 245 246 247 247 249 252 254 256 257 259 260 261 263 264 265 267 269 272 274 277 278 277 274 270 266 264 266 270 274 278 281 284 286 290 293 296 299 301 303 306 308 310 311 312 313 314 316 319 322 324 326 327 327 327 327 323 318 316 317 316 313 311 309 309 312 313 312 311 309
234 234 235 236 236 236 237 238 239 239 240 240 240 241 242 244 245 246 247 248 249 252 253 255 256 257 259 260 261 263 265 267 269 272 274 275 274 271 268 264 262 263 266 270 274 277 279 283 287 290 293 295 298 300 303 306 308 309 310 311 312 313 315 317 320 322 324 324 325 325 326 323 318 317 320 317 312 310 309 310 313 314 313 312 310
234 234 235 235 236 236 237 238 238 239 240 240 240 241 242 244 245 246 247 249 250 252 253 254 256 257 258 260 262 263 265 267 270 271 271 270 268 265 263 261 261 264 267 270 273 275 279 283 287 290 292 294 297 300 302 305 308 309 309 310 311 312 314 316 319 320 321 322 323 323 324 323 317 315 320 320 314 311 311 312 314 315 314 313 312
233 234 234 235 235 236 236 237 238 239 239 240 240 241 242 244 245 246 248 249 250 251 253 254 255 257 259 261 262 264 265 267 268 268 266 264 262 260 260 260 262 265 268 270 272 275 279 283 287 289 291 293 296 299 302 305 307 308 309 310 311 312 313 315 317 319 319 321 322 322 324 323 317 313 317 321 319 314 311 312 314 314 314 313 313
233 233 234 235 235 236 236 237 237 238 239 240 241 242 243 244 245 247 248 249 250 251 253 254 256 258 260 261 263 264 264 264 264 263 261 259 257 256 257 260 263 266 268 270 273 276 280 284 286 287 290 293 296 298 301 304 306 307 308 309 310 311 313 314 316 318 318 320 321 322 323 323 318 313 314 318 320 317 313 311 312 313 313 312 313
232 233 234 234 235 235 236 236 237 238 239 240 241 242 243 245 246 247 248 249 251 252 253 255 256 258 259 260 260 260 261 261 261 259 257 255 255 256 258 261 263 266 268 270 274 278 280 283 285 287 290 292 294 297 299 301 303 305 307 308 310 311 312 313 315 316 318 319 320 322 323 322 318 315 314 315 319 319 314 310 310 311 311 310 312
230 231 232 233 234 234 235 235 236 237 238 239 241 242 243 244 245 247 248 249 250 251 252 253 255 255 256 256 256 257 258 259 258 255 254 255 256 258 261 263 265 267 270 273 276 278 280 282 284 287 289 291 293 295 297 299 301 303 305 307 309 311 312 312 314 315 317 318 319 320 322 320 317 316 316 316 319 320 316 310 307 308 310 310 311
227 228 229 231 232 233 234 235 236 237 238 239 240 241 242 242 243 244 245 247 248 249 250 252 252 252 252 252 253 254 255 255 254 253 254 257 259 260 261 263 266 268 271 274 275 277 279 282 284 286 288 290 292 294 295 297 299 301 303 305 308 310 310 311 313 314 315 317 318 319 320 318 314 314 317 319 319 320 317 311 305 304 306 307 307
229 229 229 230 230 232 233 234 235 236 237 238 239 239 240 241 241 242 243 244 245 246 248 249 250 250 250 249 249 248 249 251 253 255 256 257 258 259 261 264 267 269 272 274 276 278 279 281 283 285 287 290 291 293 295 297 298 300 302 304 306 308 309 310 311 312 314 316 317 318 318 316 312 312 316 319 320 319 317 312 305 302 302 303 303
234 234 233 232 232 232 233 234 235 236 237 237 238 238 239 239 240 241 241 242 242 243 244 245 246 247 247 246 245 245 244 247 251 255 257 259 260 261 263 266 268 270 272 275 276 278 279 281 283 286 288 289 291 293 295 296 297 299 301 303 304 306 307 308 310 311 312 314 316 316 317 315 310 310 314 317 319 319 317 313 307 301 298 298 298
239 239 239 238 237 236 236 236 237 238 238 239 239 239 239 240 240 240 240 240 240 241 242 243 243 244 245 245 246 246 246 246 248 252 255 258 261 263 265 267 269 271 273 275 276 277 280 282 284 287 288 290 292 293 294 295 297 298 300 302 303 305 307 307 308 309 310 312 314 315 315 313 309 308 312 315 318 318 318 316 310 302 296 293 292
240 241 242 242 243 242 242 242 241 241 241 241 241 241 241 241 241 240 240 240 241 241 243 244 244 244 246 248 248 249 249 250 250 252 255 258 261 263 265 267 270 272 273 274 275 277 280 283 285 287 289 291 292 293 294 295 297 298 299 301 303 304 306 306 307 308 309 311 312 313 313 311 308 307 309 314 317 318 318 317 313 307 299 293 291
240 241 242 243 244 245 245 246 245 245 245 244 244 244 244 244 244 243 242 242 242 242 244 247 247 247 248 249 250 251 252 253 254 256 258 261 264 265 267 268 269 270 271 273 275 278 281 283 285 287 289 290 291 292 294 295 296 298 299 300 302 304 305 305 306 307 308 310 311 312 312 309 306 305 307 311 314 315 316 315 312 309 303 296 291
239 240 241 242 243 244 245 246 247 248 248 248 248 248 247 246 246 245 244 245 244 242 243 247 250 249 248 249 251 253 255 257 258 260 261 263 265 266 267 268 269 270 272 275 277 280 282 284 286 287 288 289 291 292 293 295 296 297 298 300 301 303 304 304 305 306 307 309 310 311 310 308 305 304 306 309 312 313 314 313 311 308 305 299 291
240 241 241 241 242 242 243 245 246 247 248 248 249 250 250 249 249 248 247 248 247 245 244 247 250 251 251 252 253 255 257 259 260 261 263 264 265 266 266 268 270 272 275 277 279 281 283 284 285 287 288 289 291 292 293 294 296 297 298 299 301 302 303 304 305 306 307 308 310 310 309 306 304 304 306 310 313 314 314 313 311 308 305 302 294
241 242 243 243 243 242 243 244 244 245 246 246 247 249 250 251 251 251 250 250 250 248 247 248 251 253 255 256 257 258 259 260 262 262 263 264 266 267 268 270 272 274 276 278 280 281 283 284 285 287 288 289 290 292 293 294 295 296 297 298 300 301 302 303 304 305 306 308 309 309 307 305 303 302 305 310 313 315 315 313 311 308 306 303 298
242 243 244 245 246 245 245 246 246 246 246 246 246 247 249 250 251 252 252 253 253 253 252 251 252 253 255 257 258 259 260 262 263 264 265 265 267 269 271 273 274 276 277 279 280 281 283 284 285 287 288 289 290 291 291 292 294 295 296 298 299 300 302 303 304 304 306 307 308 307 306 304 301 301 304 308 312 314 315 313 311 308 306 304 301
242 243 244 245 246 247 248 248 249 249 249 249 249 249 249 250 250 251 252 253 254 255 255 254 254 254 255 256 258 260 261 262 263 265 266 267 269 271 272 274 276 277 278 279 280 281 282 284 285 286 287 288 289 289 290 291 293 294 296 297 299 300 301 302 303 304 305 306 305 305 305 304 302 302 304 307 310 312 313 312 310 308 306 303 302
241 242 243 244 246 247 248 249 250 251 251 251 252 252 252 253 253 254 254 255 256 257 257 257 257 257 257 257 258 259 261 262 264 265 267 268 269 271 272 274 275 276 277 278 279 281 282 283 284 285 286 286 287 288 289 291 292 294 295 297 298 299 301 302 303 304 305 304 303 304 305 305 305 305 306 308 309 310 311 310 309 308 306 304 302
240 240 242 243 244 245 246 248 249 250 251 252 253 253 254 255 256 257 257 258 259 259 260 260 260 260 260 261 261 262 262 263 264 266 267 268 269 271 272 273 274 275 276 278 279 280 281 282 283 284 284 285 286 287 289 290 292 294 295 296 297 299 300 301 302 303 303 302 301 303 305 306 306 306 306 307 308 308 309 309 308 306 305 304 303
240 240 241 242 243 244 245 246 247 248 250 251 252 253 254 255 256 257 258 259 259 260 261 261 262 263 263 264 264 265 265 266 266 267 268 269 270 271 272 273 274 275 276 277 278 279 280 280 281 282 283 285 286 287 289 290 292 293 294 296 297 298 299 300 301 302 301 300 300 302 304 305 305 305 306 306 307 307 307 307 307 305 304 304 304
241 242 242 242 243 243 244 245 246 247 248 249 250 252 253 254 255 256 257 258 259 260 260 261 262 263 263 264 264 265 265 266 266 267 268 269 270 271 271 272 273 274 275 276 277 278 279 280 281 282 283 285 286 287 289 290 292 293 294 295 296 297 298 299 300 300 299 299 300 302 303 304 305 305 306 306 306 306 306 306 305 304 304 303 303
244 244 244 244 244 244 245 246 246 247 248 248 250 251 252 253 254 255 256 257 258 259 260 261 262 262 263 263 264 264 265 265 266 266 267 268 269 270 271 272 273 274 275 276 277 278 279 280 282 283 284 285 286 287 289 290 292 294 294 295 295 296 297 298 299 298 298 299 300 301 303 304 304 305 305 305 305 305 305 305 304 304 303 303 303
245 245 246 246 246 246 247 248 248 249 249 250 250 251 252 253 254 255 256 257 258 259 260 261 262 262 263 263 264 264 265 265 266 267 268 269 269 271 272 273 274 275 276 277 278 279 280 281 282 283 284 285 286 288 290 291 293 294 294 294 295 296 296 297 297 298 298 299 300 302 303 303 304 304 304 305 305 305 304 304 304 303 304 304 305
247 247 248 248 249 250 250 250 250 250 251 251 252 252 253 254 254 255 256 257 258 259 260 261 261 262 263 263 264 265 266 267 268 268 269 270 271 272 273 274 275 276 277 278 279 280 281 282 283 284 285 286 288 289 290 291 292 294 294 294 295 295 295 296 297 298 299 300 301 302 303 303 304 304 304 304 304 304 304 303 303 303 304 305 304
248 249 249 250 250 251 252 253 253 253 253 254 254 255 255 256 256 257 258 259 259 260 261 261 262 263 264 265 266 267 268 269 270 270 271 272 273 274 275 275 276 277 278 279 280 281 282 283 284 285 286 287 289 289 289 290 292 294 294 295 295 295 295 295 296 298 299 301 302 303 303 303 303 304 304 304 303 303 303 302 302 302 302 303 302
Height
10974 10976 10978 10980 10982 10983 10985 10988 10990 10991 10992 10993 10994 10995 10996 10997 10999 11000 11002 11003 11004 11004 11005 11006 11007 11007 11007 11008 11008 11009 11010 11009 11009 11008 11007 11007 11006 11005 11005 11004 11003 11002 11001 10999 10998 10996 10995 10994 10992 10990 10988 10986 10983 10981 10978 10975 10972 10969 10967 10964 10961 10959 10956 10954 10952 10950 10948 10946 10943 10941 10939 10937 10935 10933 10931 10930 10928 10926 10924 10923 10922 10921 10920 10920 10920
10971 10974 10976 10979 10980 10982 10984 10986 10988 10989 10990 10991 10992 10992 10994 10995 10996 10998 11000 11001 11002 11003 11003 11004 11004 11005 11006 11006 11007 11007 11008 11008 11008 11007 11006 11006 11005 11004 11003 11002 11001 11000 10999 10998 10997 10995 10994 10992 10991 10989 10987 10984 10982 10979 10976 10973 10970 10968 10965 10962 10959 10957 10954 10952 10950 10948 10945 10943 10941 10939 10937 10935 10933 10931 10929 10928 10926 10924 10922 10921 10920 10919 10918 10918 10918
10969 10971 10974 10976 10978 10980 10982 10983 10985 10987 10988 10989 10989 10990 10991 10992 10994 10996 10997 10999 11000 11001 11001 11002 11002 11003 11003 11004 11004 11004 11005 11006 11006 11006 11006 11005 11003 11002 11001 11000 10999 10998 10997 10996 10995 10994 10993 10991 10989 10987 10985 10983 10981 10978 10975 10972 10969 10966 10964 10961 10958 10955 10953 10950 10948 10946 10944 10941 10939 10937 10935 10933 10931 10928 10927 10925 10923 10922 10921 10920 10918 10918 10917 10917 10917
10966 10968 10970 10972 10976 10978 10979 10979 10981 10983 10985 10986 10987 10988 10989 10990 10992 10994 10995 10997 10998 10999 10999 11000 11001 11001 11001 11001 11002 11002 11002 11003 11003 11003 11003 11003 11002 11001 11000 10998 10997 10996 10995 10995 10994 10992 10991 10990 10988 10986 10983 10980 10978 10976 10974 10970 10967 10964 10961 10959 10957 10954 10951 10949 10946 10944 10941 10939 10937 10935 10933 10931 10929 10926 10924 10923 10921 10919 10918 10918 10918 10917 10916 10916 10916
10963 10964 10966 10969 10972 10974 10975 10976 10977 10979 10982 10984 10985 10986 10987 10988 10990 10991 10992 10994 10995 10996 10997 10998 10999 10999 10999 11000 11000 11000 11000 11000 11000 11000 11000 11000 11000 11000 10999 10997 10996 10994 10993 10992 10992 10990 10989 10988 10986 10984 10981 10978 10975 10972 10970 10968 10965 10963 10960 10957 10955 10953 10950 10947 10945 10943 10940 10937 10935 10933 10932 10930 10928 10926 10924 10922 10920 10918 10916 10916 10916 10915 10915 10915 10915
10959 10961 10962 10964 10967 10969 10971 10973 10974 10976 10979 10981 10982 10983 10984 10985 10987 10988 10989 10991 10992 10994 10995 10996 10997 10997 10997 10998 10998 10998 10998 10997 10997 10997 10997 10997 10997 10997 10997 10996 10995 10993 10992 10990 10989 10988 10987 10985 10984 10982 10979 10976 10973 10969 10966 10964 10962 10960 10958 10956 10954 10951 10948 10946 10944 10941 10939 10937 10934 10932 10930 10929 10927 10926 10923 10921 10919 10918 10916 10915 10914 10914 10914 10914 10914
10957 10958 10959 10960 10962 10965 10967 10969 10971 10974 10976 10977 10978 10979 10980 10982 10983 10984 10986 10988 10990 10991 10993 10993 10994 10994 10995 10996 10996 10995 10995 10995 10994 10994 10993 10994 10994 10994 10993 10993 10992 10991 10990 10988 10987 10986 10984 10983 10981 10979 10977 10974 10971 10967 10964 10961 10960 10958 10956 10955 10953 10951 10948 10945 10943 10940 10938 10935 10933 10931 10929 10928 10926 10924 10922 10920 10918 10917 10915 10914 10913 10913 10912 10912 10912
10953 10955 10955 10956 10958 10961 10963 10966 10969 10971 10973 10974 10974 10975 10977 10978 10979 10981 10983 10985 10987 10989 10990 10990 10991 10992 10992 10993 10993 10993 10993 10992 10992 10991 10991 10990 10990 10990 10990 10990 10989 10988 10987 10986 10985 10983 10982 10980 10978 10976 10974 10971 10968 10965 10962 10960 10958 10956 10954 10953 10951 10950 10948 10945 10943 10940 10937 10935 10933 10930 10928 10927 10925 10923 10921 10919 10917 10916 10914 10913 10912 10911 10911 10910 10910
10950 10951 10952 10954 10955 10958 10960 10963 10965 10967 10968 10969 10970 10971 10973 10975 10976 10978 10979 10982 10984 10985 10986 10987 10988 10989 10989 10989 10989 10990 10990 10990 10989 10989 10988 10988 10987 10987 10987 10986 10985 10984 10984 10982 10981 10980 10979 10977 10976 10973 10971 10968 10965 10963 10961 10958 10956 10954 10952 10951 10949 10948 10946 10945 10942 10939 10937 10934 10932 10930 10928 10926 10924 10923 10921 10918 10916 10914 10913 10912 10910 10909 10908 10908 10908
10947 10948 10949 10951 10953 10955 10957 10959 10961 10963 10964 10964 10966 10968 10971 10972 10973 10974 10976 10978 10980 10981 10982 10984 10985 10986 10986 10986 10986 10987 10987 10987 10986 10986 10986 10985 10985 10984 10984 10983 10982 10981 10980 10979 10978 10977 10975 10974 10972 10970 10968 10965 10963 10961 10959 10957 10955 10953 10951 10950 10948 10947 10945 10944 10942 10938 10935 10933 10931 10929 10927 10925 10924 10922 10921 10919 10916 10914 10912 10910 10908 10906 10906 10905 10904
10943 10945 10946 10948 10950 10951 10952 10954 10956 10958 10959 10961 10963 10965 10967 10969 10970 10971 10973 10975 10976 10977 10979 10981 10982 10982 10983 10983 10984 10984 10984 10984 10984 10983 10983 10983 10982 10981 10980 10980 10979 10978 10977 10976 10975 10974 10972 10970 10968 10966 10964 10962 10960 10958 10956 10955 10953 10951 10949 10948 10947 10945 10943 10942 10940 10937 10934 10931 10929 10927 10925 10923 10921 10920 10920 10918 10915 10913 10911 10909 10906 10904 10903 10902 10902
10939 10941 10944 10945 10946 10947 10948 10951 10952 10954 10956 10958 10960 10962 10964 10965 10966 10968 10969 10971 10973 10974 10976 10977 10978 10979 10980 10980 10981 10981 10981 10981 10981 10981 10980 10980 10979 10978 10977 10976 10975 10974 10973 10972 10972 10970 10969 10967 10965 10963 10961 10960 10958 10956 10954 10952 10950 10949 10947 10945 10945 10943 10941 10939 10937 10934 10931 10928 10926 10925 10923 10920 10918 10917 10917 10915 10912 10910 10909 10907 10905 10903 10902 10902 10901
10935 10938 10940 10941 10942 10943 10945 10947 10948 10951 10953 10955 10957 10958 10960 10961 10962 10964 10966 10968 10970 10971 10972 10974 10975 10975 10976 10977 10977 10978 10978 10978 10978 10978 10978 10977 10976 10975 10974 10973 10972 10971 10970 10969 10968 10967 10965 10963 10962 10960 10959 10957 10955 10953 10951 10950 10948 10946 10944 10943 10942 10941 10939 10937 10934 10932 10929 10926 10923 10921 10920 10918 10915 10913 10912 10911 10908 10906 10905 10904 10903 10902 10902 10901 10899
10931 10934 10936 10937 10938 10940 10941 10943 10945 10947 10949 10952 10954 10955 10955 10957 10959 10961 10963 10964 10966 10967 10968 10970 10971 10972 10973 10973 10974 10974 10975 10975 10975 10975 10974 10973 10972 10971 10971 10970 10968 10967 10966 10965 10964 10963 10961 10960 10958 10957 10956 10954 10952 10950 10949 10947 10946 10944 10942 10940 10939 10938 10936 10934 10931 10929 10927 10924 10921 10918 10916 10915 10912 10910 10908 10906 10904 10903 10903 10902 10900 10899 10900 10899 10896
10927 10929 10931 10932 10934 10936 10938 10939 10941 10943 10945 10948 10950 10951 10952 10954 10955 10957 10959 10960 10961 10963 10965 10966 10967 10968 10969 10970 10970 10970 10971 10971 10971 10971 10971 10969 10968 10968 10967 10966 10965 10964 10963 10961 10960 10959 10958 10956 10955 10954 10953 10951 10949 10947 10946 10944 10943 10941 10939 10937 10936 10935 10934 10931 10928 10926 10923 10921 10919 10916 10914 10912 10910 10908 10905 10903 10902 10901 10900 10900 10897 10896 10897 10896 10892
10922 10924 10926 10928 10930 10932 10934 10935 10937 10939 10941 10943 10945 10947 10949 10950 10952 10954 10955 10956 10958 10959 10961 10962 10963 10964 10966 10966 10966 10967 10968 10968 10967 10966 10966 10965 10964 10964 10963 10963 10962 10960 10959 10957 10956 10955 10954 10953 10952 10951 10950 10948 10946 10945 10943 10941 10939 10937 10935 10933 10932 10931 10930 10927 10925 10922 10920 10917 10915 10913 10911 10909 10907 10905 10902 10901 10900 10898 10898 10897 10894 10893 10894 10892 10889
10916 10919 10921 10923 10926 10928 10930 10932 10933 10935 10937 10939 10941 10943 10945 10946 10948 10950 10951 10952 10953 10955 10956 10958 10959 10960 10961 10961 10962 10964 10965 10964 10963 10962 10962 10961 10961 10960 10960 10959 10958 10957 10955 10954 10953 10952 10951 10949 10949 10948 10947 10945 10944 10942 10940 10938 10936 10934 10932 10930 10928 10927 10926 10924 10921 10918 10915 10913 10911 10909 10908 10906 10904 10901 10899 10898 10897 10895 10895 10894 10891 10890 10889 10887 10885
10911 10913 10916 10919 10922 10924 10926 10928 10930 10931 10933 10934 10936 10938 10940 10942 10944 10945 10946 10948 10949 10951 10952 10954 10955 10955 10956 10957 10958 10960 10961 10961 10960 10958 10958 10957 10956 10956 10956 10955 10955 10953 10951 10950 10949 10948 10947 10946 10945 10944 10943 10942 10941 10940 10938 10936 10934 10932 10931 10928 10925 10924 10923 10921 10918 10915 10912 10910 10908 10906 10904 10902 10900 10897 10894 10893 10892 10891 10890 10890 10888 10887 10884 10883 10880
10904 10908 10911 10915 10918 10921 10923 10924 10926 10927 10929 10930 10932 10934 10936 10938 10939 10941 10942 10943 10945 10946 10948 10949 10950 10951 10952 10953 10954 10955 10956 10957 10956 10954 10954 10953 10952 10952 10952 10951 10951 10950 10947 10946 10945 10944 10944 10943 10941 10940 10939 10939 10938 10937 10935 10934 10932 10930 10929 10927 10923 10921 10920 10918 10916 10913 10910 10906 10904 10902 10900 10897 10895 10893 10890 10888 10886 10885 10884 10883 10882 10881 10879 10878 10875
10899 10904 10908 10912 10915 10917 10919 10920 10921 10923 10924 10926 10927 10929 10931 10932 10934 10936 10937 10939 10940 10942 10943 10944 10945 10946 10947 10949 10949 10950 10951 10952 10952 10950 10949 10949 10948 10948 10947 10947 10947 10946 10943 10942 10941 10941 10940 10939 10938 10937 10935 10934 10934 10932 10931 10930 10929 10927 10926 10925 10922 10919 10917 10915 10913 10911 10908 10904 10901 10899 10897 10894 10891 10888 10886 10884 10881 10879 10878 10877 10875 10874 10873 10872 10869
10896 10901 10905 10908 10910 10912 10914 10915 10916 10918 10919 10921 10923 10924 10926 10927 10929 10931 10932 10934 10935 10936 10938 10939 10941 10942 10943 10944 10945 10945 10946 10947 10947 10946 10945 10944 10944 10943 10943 10943 10943 10941 10939 10938 10937 10937 10936 10935 10934 10932 10931 10930 10929 10928 10928 10927 10926 10924 10922 10921 10919 10917 10914 10912 10910 10908 10905 10903 10899 10897 10895 10892 10888 10885 10883 10881 10877 10875 10874 10873 10871 10868 10866 10865 10862
10892 10896 10899 10902 10905 10907 10908 10909 10911 10912 10914 10916 10918 10919 10921 10923 10924 10926 10927 10929 10930 10931 10933 10934 10936 10937 10939 10939 10940 10941 10942 10942 10942 10941 10941 10940 10939 10939 10938 10938 10938 10936 10934 10933 10933 10933 10932 10931 10929 10928 10927 10926 10926 10925 10924 10924 10922 10921 10919 10918 10916 10914 10912 10910 10908 10905 10902 10899 10897 10894 10891 10888 10885 10881 10878 10876 10873 10870 10868 10867 10866 10863 10860 10857 10854
10886 10889 10893 10896 10898 10900 10901 10903 10905 10907 10909 10911 10913 10914 10916 10918 10920 10921 10923 10924 10925 10926 10927 10930 10931 10933 10934 10935 10935 10936 10937 10937 10937 10936 10936 10936 10935 10934 10933 10933 10933 10931 10929 10929 10929 10928 10927 10926 10926 10925 10924 10924 10923 10922 10921 10920 10918 10917 10915 10913 10912 10911 10909 10908 10905 10902 10899 10896 10893 10890 10886 10883 10880 10876 10872 10869 10866 10863 10861 10859 10857 10856 10853 10850 10846
10879 10882 10885 10888 10890 10893 10895 10897 10899 10902 10904 10906 10908 10910 10912 10914 10915 10917 10918 10919 10920 10921 10922 10925 10926 10928 10929 10930 10931 10931 10932 10932 10931 10931 10931 10932 10931 10930 10929 10928 10928 10926 10925 10924 10924 10924 10923 10923 10922 10922 10921 10920 10919 10918 10916 10915 10914 10912 10911 10909 10908 10906 10905 10903 10901 10898 10895 10891 10888 10885 10881 10878 10876 10873 10868 10865 10861 10857 10854 10851 10848 10845 10843 10841 10838
10873 10876 10878 10881 10883 10886 10889 10891 10894 10897 10899 10902 10904 10905 10907 10909 10911 10912 10913 10914 10915 10916 10917 10919 10921 10922 10924 10925 10925 10926 10926 10926 10926 10926 10926 10927 10927 10926 10925 10924 10924 10922 10921 10921 10921 10920 10919 10919 10918 10918 10917 10915 10914 10913 10912 10910 10909 10908 10906 10905 10903 10901 10900 10898 10896 10893 10890 10886 10883 10880 10876 10873 10870 10867 10864 10860 10856 10852 10848 10845 10841 10837 10834 10832 10831
10867 10870 10873 10875 10878 10881 10884 10887 10889 10892 10895 10897 10899 10901 10903 10905 10905 10906 10907 10908 10910 10911 10913 10914 10916 10917 10919 10919 10920 10921 10921 10920 10920 10920 10921 10922 10921 10921 10920 10920 10919 10918 10918 10917 10916 10916 10915 10914 10914 10913 10912 10911 10910 10908 10907 10905 10904 10903 10901 10900 10898 10897 10895 10894 10891 10889 10886 10882 10879 10876 10873 10869 10866 10862 10859 10855 10851 10846 10842 10840 10838 10833 10827 10825 10823
10860 10863 10866 10869 10873 10876 10879 10881 10884 10887 10890 10892 10894 10896 10897 10898 10899 10900 10901 10903 10905 10906 10908 10909 10910 10912 10913 10914 10915 10915 10914 10914 10914 10915 10915 10916 10915 10915 10915 10914 10914 10914 10913 10912 10912 10911 10910 10910 10909 10908 10907 10906 10905 10904 10902 10901 10899 10898 10896 10895 10893 10892 10890 10889 10887 10884 10882 10879 10877 10873 10870 10866 10862 10859 10854 10850 10846 10841 10837 10834 10832 10828 10821 10817 10816
10854 10857 10860 10863 10866 10869 10872 10875 10879 10882 10884 10886 10887 10889 10890 10891 10893 10894 10896 10898 10900 10901 10902 10903 10904 10906 10907 10908 10909 10909 10908 10908 10909 10909 10909 10909 10909 10909 10909 10909 10909 10909 10908 10907 10907 10906 10906 10905 10905 10904 10903 10902 10900 10899 10898 10896 10894 10893 10891 10889 10887 10886 10884 10883 10882 10879 10877 10875 10873 10870 10866 10863 10859 10855 10851 10847 10842 10836 10831 10828 10826 10822 10816 10811 10808
10849 10851 10853 10856 10859 10862 10865 10869 10872 10875 10876 10878 10880 10882 10883 10885 10887 10889 10891 10893 10894 10895 10896 10897 10898 10900 10901 10902 10902 10902 10902 10903 10903 10903 10903 10903 10903 10904 10904 10904 10904 10903 10903 10902 10902 10901 10901 10901 10900 10899 10898 10896 10895 10894 10893 10891 10889 10887 10885 10883 10881 10880 10878 10877 10875 10873 10870 10869 10866 10864 10860 10857 10854 10851 10848 10843 10837 10831 10825 10822 10819 10816 10812 10807 10802
10844 10846 10848 10851 10853 10856 10859 10862 10864 10867 10868 10871 10873 10875 10877 10879 10881 10883 10885 10886 10887 10889 10890 10891 10892 10894 10895 10895 10895 10896 10896 10897 10897 10897 10897 10897 10898 10898 10899 10899 10898 10898 10897 10897 10897 10896 10896 10895 10894 10893 10892 10891 10889 10888 10887 10886 10884 10882 10879 10877 10876 10874 10872 10870 10868 10866 10864 10861 10859 10856 10853 10851 10848 10846 10843 10840 10834 10828 10821 10817 10813 10810 10806 10802 10798
10839 10841 10843 10845 10848 10850 10852 10855 10857 10859 10861 10864 10866 10868 10870 10873 10875 10877 10878 10880 10881 10882 10883 10885 10886 10888 10889 10889 10889 10889 10890 10890 10891 10891 10891 10891 10892 10892 10893 10893 10892 10892 10892 10892 10891 10891 10890 10889 10888 10887 10886 10885 10884 10883 10882 10880 10878 10876 10874 10871 10869 10868 10866 10864 10862 10859 10857 10855 10852 10849 10846 10844 10841 10839 10837 10834 10831 10825 10819 10813 10809 10805 10802 10797 10794
10834 10836 10838 10840 10842 10844 10846 10848 10850 10852 10855 10857 10859 10862 10864 10866 10868 10870 10871 10873 10874 10875 10877 10878 10880 10881 10882 10883 10883 10884 10884 10884 10884 10884 10884 10885 10886 10886 10886 10886 10886 10886 10886 10886 10886 10885 10884 10883 10882 10881 10880 10879 10878 10877 10876 10874 10873 10871 10868 10866 10863 10861 10859 10857 10855 10852 10850 10848 10845 10842 10839 10837 10835 10832 10830 10828 10825 10821 10816 10810 10805 10801 10798 10794 10790
10831 10832 10834 10836 10838 10839 10841 10843 10845 10847 10849 10851 10853 10855 10858 10860 10862 10863 10864 10866 10868 10869 10870 10872 10873 10874 10876 10877 10878 10879 10879 10878 10877 10878 10879 10879 10879 10879 10879 10879 10879 10879 10879 10879 10879 10879 10878 10877 10876 10875 10874 10873 10872 10871 10870 10868 10866 10864 10862 10860 10858 10855 10853 10850 10848 10845 10843 10841 10838 10835 10833 10830 10828 10826 10823 10821 10819 10816 10812 10807 10802 10798 10795 10791 10787
10827 10829 10831 10832 10834 10836 10837 10838 10840 10842 10843 10845 10847 10849 10851 10853 10855 10857 10858 10860 10862 10863 10864 10865 10866 10868 10870 10871 10872 10874 10873 10870 10868 10869 10871 10872 10872 10872 10872 10872 10872 10872 10872 10872 10872 10872 10871 10870 10869 10869 10868 10867 10866 10864 10863 10861 10860 10858 10856 10854 10852 10850 10848 10845 10842 10839 10836 10833 10831 10828 10826 10823 10820 10818 10816 10814 10812 10810 10807 10803 10798 10794 10791 10788 10784
10821 10823 10826 10828 10830 10831 10833 10834 10835 10837 10838 10840 10842 10844 10846 10847 10849 10851 10852 10854 10855 10856 10857 10858 10859 10861 10862 10864 10865 10866 10865 10864 10862 10861 10862 10863 10864 10865 10865 10865 10866 10866 10866 10866 10865 10864 10863 10863 10862 10862 10861 10860 10859 10857 10855 10854 10852 10851 10849 10847 10846 10844 10842 10839 10836 10833 10830 10827 10824 10821 10818 10816 10813 10810 10808 10807 10805 10803 10800 10797 10794 10790 10786 10783 10780
10815 10817 10819 10821 10823 10825 10827 10829 10830 10832 10833 10835 10837 10839 10840 10842 10843 10845 10846 10847 10848 10849 10850 10851 10853 10854 10855 10856 10857 10857 10857 10857 10857 10856 10856 10857 10857 10859 10859 10859 10859 10859 10859 10858 10857 10856 10856 10855 10855 10854 10853 10852 10851 10849 10847 10846 10845 10843 10841 10840 10839 10837 10834 10832 10829 10825 10823 10820 10818 10815 10811 10808 10805 10803 10801 10798 10795 10793 10791 10790 10788 10785 10781 10778 10775
10808 10810 10812 10814 10816 10818 10820 10822 10824 10826 10828 10829 10831 10833 10834 10836 10837 10838 10840 10841 10842 10844 10844 10844 10846 10847 10848 10848 10849 10849 10849 10850 10850 10851 10852 10852 10852 10853 10854 10854 10853 10852 10851 10849 10849 10848 10848 10848 10848 10847 10846 10844 10843 10841 10839 10838 10837 10835 10833 10832 10831 10829 10827 10824 10821 10818 10815 10813 10811 10808 10805 10801 10798 10796 10794 10791 10787 10783 10781 10780 10779 10777 10774 10770 10766
10802 10804 10806 10807 10809 10811 10813 10815 10817 10819 10821 10823 10824 10826 10828 10829 10831 10832 10834 10835 10836 10837 10837 10836 10837 10838 10839 10838 10839 10840 10842 10843 10844 10845 10847 10848 10848 10848 10848 10848 10846 10844 10842 10841 10841 10841 10841 10840 10840 10839 10838 10836 10834 10833 10832 10830 10829 10827 10824 10823 10822 10821 10818 10816 10813 10810 10807 10805 10803 10800 10797 10794 10790 10788 10786 10784 10781 10777 10774 10771 10768 10767 10765 10762 10758
10796 10797 10799 10801 10803 10805 10807 10808 10810 10812 10814 10816 10818 10819 10821 10823 10824 10826 10827 10828 10829 10831 10830 10827 10826 10828 10829 10831 10833 10834 10836 10837 10839 10840 10842 10843 10842 10841 10840 10838 10836 10835 10834 10834 10833 10833 10832 10831 10830 10830 10829 10827 10825 10824 10823 10822 10820 10818 10816 10813 10812 10811 10809 10807 10804 10801 10798 10796 10794 10792 10789 10786 10782 10780 10778 10776 10774 10770 10767 10764 10760 10757 10756 10755 10752
10789 10790 10792 10794 10796 10799 10801 10802 10804 10806 10808 10809 10811 10812 10813 10816 10818 10820 10821 10821 10821 10823 10823 10821 10819 10820 10822 10824 10827 10829 10830 10832 10833 10834 10835 10834 10832 10830 10829 10827 10826 10827 10827 10826 10825 10824 10822 10821 10820 10820 10819 10818 10817 10816 10814 10813 10811 10809 10806 10804 10803 10801 10799 10797 10795 10792 10789 10786 10784 10782 10780 10777 10774 10771 10769 10767 10764 10761 10757 10755 10751 10748 10746 10745 10744
10783 10784 10785 10787 10789 10792 10794 10796 10798 10799 10801 10803 10804 10805 10807 10809 10811 10813 10814 10813 10813 10815 10816 10816 10816 10816 10817 10818 10819 10821 10823 10824 10824 10825 10825 10822 10820 10819 10819 10818 10818 10819 10818 10817 10815 10814 10812 10811 10810 10810 10809 10808 10807 10807 10806 10804 10802 10800 10797 10795 10793 10792 10790 10788 10785 10782 10779 10777 10774 10772 10770 10767 10764 10761 10759 10757 10754 10751 10747 10745 10742 10739 10736 10734 10734
10775 10777 10779 10780 10782 10784 10786 10788 10790 10791 10793 10795 10797 10799 10801 10802 10804 10805 10805 10805 10806 10807 10809 10811 10813 10812 10811 10810 10811 10812 10813 10814 10813 10813 10813 10811 10810 10810 10809 10809 10810 10809 10808 10806 10804 10803 10802 10801 10800 10800 10799 10799 10798 10797 10796 10795 10793 10791 10788 10786 10784 10782 10780 10778 10775 10772 10770 10767 10765 10762 10760 10758 10755 10752 10749 10747 10744 10742 10738 10735 10733 10730 10727 10724 10723
10767 10770 10771 10773 10774 10776 10778 10780 10781 10783 10784 10786 10788 10790 10792 10794 10796 10797 10797 10797 10798 10799 10801 10803 10805 10805 10803 10803 10803 10803 10803 10803 10803 10802 10802 10801 10801 10800 10800 10800 10799 10798 10797 10795 10793 10793 10793 10792 10791 10791 10790 10789 10788 10788 10787 10785 10784 10781 10779 10777 10774 10772 10770 10767 10765 10762 10760 10757 10755 10752 10750 10748 10745 10742 10739 10736 10734 10732 10729 10726 10723 10721 10718 10716 10714
10759 10762 10763 10765 10766 10768 10769 10771 10772 10774 10775 10777 10779 10781 10783 10785 10786 10787 10788 10789 10790 10791 10792 10794 10795 10795 10795 10795 10795 10794 10794 10794 10793 10793 10792 10792 10791 10791 10791 10790 10790 10788 10787 10785 10783 10783 10783 10782 10782 10781 10780 10779 10778 10777 10776 10774 10773 10771 10769 10767 10764 10762 10759 10757 10754 10752 10750 10747 10744 10742 10739 10737 10734 10731 10729 10726 10723 10721 10719 10716 10713 10710 10708 10706 10704
10751 10753 10755 10756 10758 10759 10761 10763 10764 10765 10766 10769 10771 10773 10774 10776 10777 10778 10779 10779 10780 10782 10782 10783 10784 10785 10785 10785 10785 10785 10785 10784 10784 10783 10783 10782 10782 10781 10781 10780 10780 10779 10777 10775 10774 10773 10773 10772 10771 10771 10770 10769 10767 10766 10765 10763 10762 10760 10758 10756 10754 10751 10749 10746 10744 10741 10739 10736 10734 10731 10728 10726 10723 10720 10718 10716 10712 10710 10708 10706 10703 10700 10698 10696 10694
10742 10744 10746 10748 10749 10751 10753 10754 10756 10757 10758 10760 10762 10764 10766 10767 10768 10769 10770 10770 10771 10772 10772 10773 10774 10774 10775 10775 10775 10775 10774 10774 10773 10773 10772 10772 10771 10770 10770 10770 10769 10769 10767 10766 10765 10763 10762 10762 10761 10760 10759 10758 10756 10755 10753 10752 10751 10749 10747 10745 10743 10741 10738 10736 10733 10730 10728 10725 10723 10720 10717 10715 10712 10709 10707 10705 10702 10699 10696 10694 10692 10690 10687 10685 10684
10732 10734 10736 10738 10740 10742 10744 10745 10747 10749 10750 10752 10753 10755 10757 10759 10759 10760 10761 10761 10762 10763 10763 10764 10764 10764 10764 10764 10764 10764 10764 10763 10762 10762 10762 10761 10761 10760 10759 10759 10759 10758 10757 10756 10754 10753 10751 10751 10750 10749 10748 10746 10745 10743 10742 10741 10739 10738 10736 10734 10732 10730 10727 10725 10722 10719 10716 10714 10711 10709 10706 10703 10700 10697 10695 10693 10690 10688 10685 10683 10681 10678 10676 10674 10673
10721 10723 10725 10727 10729 10732 10734 10736 10738 10740 10741 10743 10745 10746 10748 10749 10750 10751 10752 10752 10753 10753 10753 10753 10753 10753 10753 10753 10753 10752 10752 10752 10751 10751 10750 10750 10750 10749 10749 10749 10749 10747 10746 10745 10743 10741 10740 10739 10738 10737 10736 10734 10733 10732 10730 10729 10727 10726 10724 10722 10719 10718 10715 10713 10710 10707 10704 10701 10699 10697 10694 10691 10688 10685 10683 10680 10678 10676 10673 10671 10669 10667 10664 10663 10661
10709 10711 10713 10716 10719 10722 10724 10726 10728 10730 10732 10733 10735 10737 10738 10740 10741 10742 10742 10743 10743 10743 10742 10742 10742 10741 10741 10741 10740 10740 10740 10740 10740 10739 10739 10739 10739 10738 10738 10738 10737 10735 10734 10732 10730 10729 10727 10727 10726 10725 10723 10722 10721 10719 10718 10717 10715 10713 10711 10709 10707 10704 10702 10700 10697 10695 10692 10689 10686 10684 10681 10678 10676 10673 10670 10668 10666 10663 10660 10658 10656 10653 10651 10649 10648
10697 10700 10703 10706 10709 10712 10713 10715 10717 10719 10721 10722 10724 10726 10727 10729 10730 10731 10731 10732 10732 10732 10731 10730 10730 10729 10729 10729 10729 10729 10729 10728 10728 10728 10727 10727 10726 10726 10726 10725 10724 10722 10721 10720 10718 10716 10715 10714 10713 10712 10710 10709 10708 10707 10705 10704 10702 10700 10698 10696 10693 10691 10688 10686 10684 10681 10679 10676 10673 10670 10667 10664 10662 10659 10657 10655 10653 10650 10648 10645 10642 10640 10637 10635 10634
10686 10689 10693 10696 10698 10699 10701 10703 10705 10707 10709 10711 10713 10714 10716 10717 10719 10719 10720 10720 10720 10719 10719 10718 10718 10718 10718 10718 10717 10717 10717 10716 10716 10715 10714 10713 10713 10712 10712 10711 10711 10709 10707 10706 10705 10704 10702 10701 10700 10699 10698 10696 10694 10693 10692 10690 10688 10686 10685 10682 10680 10677 10674 10672 10669 10667 10664 10662 10659 10656 10653 10650 10648 10645 10643 10640 10638 10636 10635 10633 10631 10628 10625 10623 10621